IW3HBX-13 Weather Reports


time (UTC)temp
F
wind
direction
speed
knots
gust
knots
rain 1hr
in
rain 24hr
in
rain mn
in
humidity
%
barometer
mb
20260502231807 57 225 0.0 0.0 0.00 0.00 0.00 66 1020.8
20260502231211 57 225 0.0 0.0 0.00 0.00 0.00 66 1020.8
20260502230608 58 225 0.0 0.0 0.00 0.00 0.00 65 1020.9
20260502225407 59 225 0.0 0.0 0.00 0.00 0.00 63 1020.9
20260502224808 59 225 0.0 0.0 0.00 0.00 0.00 63 1020.9
20260502224207 59 225 0.0 0.0 0.00 0.00 0.00 62 1020.9
20260502223607 59 225 0.0 0.0 0.00 0.00 0.00 62 1020.9
20260502223011 60 225 0.0 0.0 0.00 0.00 0.00 61 1021.0
20260502222411 61 225 0.0 0.0 0.00 0.00 0.00 59 1021.0
20260502221807 61 225 0.0 0.0 0.00 0.00 0.00 58 1021.1
20260502221209 61 225 0.0 0.0 0.00 0.00 0.00 59 1021.1
20260502220609 61 225 0.0 0.0 0.00 0.00 0.00 58 1021.0
20260502215407 62 225 0.0 0.9 0.00 0.00 0.00 56 1020.9
20260502214807 62 225 0.0 0.9 0.00 0.00 0.00 55 1020.9
20260502214207 62 225 0.0 0.9 0.00 0.00 0.00 55 1020.9
20260502213609 63 225 1.7 2.6 0.00 0.00 0.00 54 1020.9
20260502213008 63 225 1.7 1.7 0.00 0.00 0.00 53 1021.0
20260502212407 63 225 1.7 1.7 0.00 0.00 0.00 53 1021.0
20260502211809 63 225 0.9 1.7 0.00 0.00 0.00 53 1020.9
20260502211209 62 225 1.7 1.7 0.00 0.00 0.00 54 1021.0
20260502210607 62 225 0.0 0.9 0.00 0.00 0.00 55 1021.0
20260502205407 62 225 0.0 0.0 0.00 0.00 0.00 56 1021.0
20260502204810 62 225 0.0 0.0 0.00 0.00 0.00 55 1020.9
20260502204207 62 225 0.0 0.0 0.00 0.00 0.00 56 1020.9
20260502203607 62 225 0.0 0.0 0.00 0.00 0.00 56 1020.9
20260502203009 62 225 0.0 0.0 0.00 0.00 0.00 55 1021.0
20260502202407 63 228 0.0 0.0 0.00 0.00 0.00 56 1021.0
20260502201807 63 225 0.0 0.0 0.00 0.00 0.00 54 1021.1
20260502201208 63 225 0.0 0.0 0.00 0.00 0.00 55 1021.1
20260502200608 63 225 0.0 0.0 0.00 0.00 0.00 54 1021.1
20260502195409 63 225 0.0 0.0 0.00 0.00 0.00 54 1021.1
20260502194808 64 225 0.0 0.0 0.00 0.00 0.00 54 1021.0
20260502194207 64 225 0.0 0.0 0.00 0.00 0.00 54 1021.0
20260502193607 64 225 0.0 0.0 0.00 0.00 0.00 53 1021.0
20260502193008 64 225 0.0 0.0 0.00 0.00 0.00 53 1021.1
20260502192407 65 225 0.0 0.0 0.00 0.00 0.00 52 1020.9
20260502191807 65 225 0.0 0.0 0.00 0.00 0.00 52 1021.0
20260502191211 66 225 0.0 0.0 0.00 0.00 0.00 51 1021.0
20260502190607 66 225 0.0 0.0 0.00 0.00 0.00 50 1020.9
20260502185407 67 225 0.0 0.0 0.00 0.00 0.00 48 1020.8
20260502184807 68 225 0.0 0.0 0.00 0.00 0.00 47 1020.8
20260502184207 69 225 0.9 1.7 0.00 0.00 0.00 45 1020.8
20260502183608 69 225 0.0 0.0 0.00 0.00 0.00 45 1020.7
20260502183010 69 225 0.9 1.7 0.00 0.00 0.00 44 1020.6
20260502182407 69 225 0.0 0.0 0.00 0.00 0.00 44 1020.7
20260502181807 71 225 1.7 1.7 0.00 0.00 0.00 42 1020.6
20260502181208 71 225 0.9 2.6 0.00 0.00 0.00 42 1020.7
20260502180608 71 227 0.9 1.7 0.00 0.00 0.00 41 1020.5
20260502164208 76 224 2.6 4.3 0.00 0.00 0.00 34 1020.7
20260502163608 76 223 2.6 4.3 0.00 0.00 0.00 34 1020.7
20260502163009 77 226 1.7 3.5 0.00 0.00 0.00 35 1020.8
20260502162410 77 231 1.7 2.6 0.00 0.00 0.00 34 1020.9
20260502161807 76 223 3.5 4.3 0.00 0.00 0.00 35 1020.9
20260502161207 77 234 3.5 6.1 0.00 0.00 0.00 34 1020.9
20260502160609 77 239 2.6 4.3 0.00 0.00 0.00 33 1021.0
20260502151807 77 230 2.6 4.3 0.00 0.00 0.00 32 1021.4
20260502151207 78 224 1.7 2.6 0.00 0.00 0.00 32 1021.4
20260502150607 78 227 1.7 4.3 0.00 0.00 0.00 32 1021.5
20260502130609 76 268 2.6 7.0 0.00 0.00 0.00 33 1022.9
20260502123607 75 216 4.3 5.2 0.00 0.00 0.00 33 1023.4
20260502122408 76 259 4.3 7.8 0.00 0.00 0.00 33 1023.6
20260502121807 75 272 2.6 5.2 0.00 0.00 0.00 33 1023.5
20260502121207 76 301 0.9 1.7 0.00 0.00 0.00 34 1023.6
20260502120609 76 182 2.6 3.5 0.00 0.00 0.00 35 1023.7
20260502115407 74 14 1.7 2.6 0.00 0.00 0.00 35 1023.9
20260502114810 74 239 1.7 3.5 0.00 0.00 0.00 35 1023.9
20260502114207 75 232 4.3 6.1 0.00 0.00 0.00 35 1023.9
20260502113607 76 242 2.6 4.3 0.00 0.00 0.00 34 1024.2
20260502112407 72 224 1.7 4.3 0.00 0.00 0.00 35 1024.2
20260502111810 73 228 5.2 7.8 0.00 0.00 0.00 35 1024.4
20260502111207 73 240 2.6 4.3 0.00 0.00 0.00 35 1024.4
20260502110607 74 249 1.7 6.1 0.00 0.00 0.00 34 1024.6
20260502105410 74 284 2.6 4.3 0.00 0.00 0.00 34 1024.7
20260502104808 73 232 2.6 4.3 0.00 0.00 0.00 36 1024.8
20260502104207 74 253 2.6 3.5 0.00 0.00 0.00 35 1024.8
20260502103607 73 236 1.7 3.5 0.00 0.00 0.00 35 1024.9
20260502102407 72 229 3.5 6.1 0.00 0.00 0.00 36 1025.2
20260502101806 73 239 2.6 3.5 0.00 0.00 0.00 36 1025.2
20260502101207 73 183 1.7 2.6 0.00 0.00 0.00 36 1025.2
20260502100607 71 240 2.6 4.3 0.00 0.00 0.00 36 1025.3
20260502091210 70 270 0.9 4.3 0.00 0.00 0.00 39 1025.8
20260502090607 69 222 1.7 3.5 0.00 0.00 0.00 40 1025.8
20260502071207 63 346 0.9 1.7 0.00 0.00 0.00 50 1026.5
20260502070607 63 67 1.7 2.6 0.00 0.00 0.00 51 1026.5
20260502065408 63 264 0.9 1.7 0.00 0.00 0.00 53 1026.6
20260502064807 61 296 0.0 1.7 0.00 0.00 0.00 54 1026.6
20260502064207 60 297 0.9 1.7 0.00 0.00 0.00 55 1026.5
20260502063607 60 299 0.9 1.7 0.00 0.00 0.00 57 1026.5
20260502063007 59 300 0.9 1.7 0.00 0.00 0.00 55 1026.6
20260502062408 59 298 0.0 0.9 0.00 0.00 0.00 57 1026.6
20260502061807 57 298 0.9 1.7 0.00 0.00 0.00 60 1026.6
20260502061208 57 285 1.7 1.7 0.00 0.00 0.00 60 1026.7
20260502060607 57 301 1.7 1.7 0.00 0.00 0.00 61 1026.6
20260502055407 55 292 2.6 2.6 0.00 0.00 0.00 62 1026.7
20260502054807 55 292 1.7 2.6 0.00 0.00 0.00 63 1026.7
20260502054210 54 320 1.7 2.6 0.00 0.00 0.00 62 1026.6
20260502053607 53 296 0.9 1.7 0.00 0.00 0.00 64 1026.7
20260502053006 52 300 0.9 2.6 0.00 0.00 0.00 66 1026.8
20260502052408 52 294 0.9 1.7 0.00 0.00 0.00 65 1026.7
20260502051808 52 294 1.7 2.6 0.00 0.00 0.00 66 1026.7
20260502051207 52 300 1.7 1.7 0.00 0.00 0.00 66 1026.7
20260502050607 52 306 1.7 1.7 0.00 0.00 0.00 66 1026.7
20260502045409 51 306 0.0 0.0 0.00 0.00 0.00 69 1026.6
20260502044807 50 306 0.9 1.7 0.00 0.00 0.00 69 1026.5
20260502044206 50 306 0.9 1.7 0.00 0.00 0.00 69 1026.6
20260502043609 49 306 0.9 1.7 0.00 0.00 0.00 70 1026.5
20260502043009 49 322 1.7 1.7 0.00 0.00 0.00 71 1026.5
20260502042409 48 322 0.9 1.7 0.00 0.00 0.00 72 1026.5
20260502041806 48 322 0.9 0.9 0.00 0.00 0.00 73 1026.6
20260502041208 48 322 1.7 1.7 0.00 0.00 0.00 74 1026.5
20260502040609 48 294 0.0 0.0 0.00 0.00 0.00 74 1026.6
20260502035411 48 294 0.0 0.0 0.00 0.00 0.00 74 1026.6
20260502034808 48 294 0.0 0.0 0.00 0.00 0.00 74 1026.6
20260502034207 48 294 0.0 0.0 0.00 0.00 0.00 75 1026.6
20260502033607 48 294 0.0 0.0 0.00 0.00 0.00 76 1026.6
20260502033008 48 294 0.0 0.0 0.00 0.00 0.00 75 1026.5
20260502032407 48 294 0.0 0.0 0.00 0.00 0.00 73 1026.5
20260502031807 48 294 0.0 0.0 0.00 0.00 0.00 74 1026.5
20260502031207 48 294 0.0 0.0 0.00 0.00 0.00 73 1026.5
20260502030611 48 294 0.0 0.0 0.00 0.00 0.00 73 1026.6
20260502025407 49 294 0.0 0.0 0.00 0.00 0.00 73 1026.7
20260502024807 49 294 0.0 0.0 0.00 0.00 0.00 73 1026.7
20260502024207 49 294 0.0 0.0 0.00 0.00 0.00 72 1026.7
20260502023607 50 294 0.0 0.0 0.00 0.00 0.00 71 1026.8
20260502023009 50 294 0.0 0.0 0.00 0.00 0.00 71 1026.7
20260502022407 50 294 0.0 0.0 0.00 0.00 0.00 69 1026.7
20260502021808 50 294 0.0 0.9 0.00 0.00 0.00 66 1026.8
20260502021207 50 294 0.0 0.9 0.00 0.00 0.00 67 1026.7
20260502020607 50 294 0.0 0.0 0.00 0.00 0.00 68 1026.7
20260502015408 51 294 0.0 0.0 0.00 0.00 0.00 65 1026.7
20260502014807 50 294 0.9 1.7 0.00 0.00 0.00 66 1026.7
20260502014209 50 267 0.0 0.0 0.00 0.00 0.00 67 1026.6
20260502013609 50 267 0.0 0.0 0.00 0.00 0.00 68 1026.7
20260502013009 51 267 0.0 0.0 0.00 0.00 0.00 68 1026.6
20260502012410 51 267 0.0 0.0 0.00 0.00 0.00 68 1026.6
20260502011811 51 267 0.0 0.0 0.00 0.00 0.00 67 1026.6
20260502011208 51 267 0.0 0.0 0.00 0.00 0.00 65 1026.6
20260502010608 50 267 0.9 0.9 0.00 0.00 0.00 66 1026.6
20260502005409 51 267 0.0 0.0 0.00 0.00 0.00 65 1026.6
20260502004810 51 267 0.0 0.0 0.00 0.00 0.00 62 1026.6
20260502004207 51 267 0.0 0.0 0.00 0.00 0.00 60 1026.6
20260502003608 51 267 0.0 0.0 0.00 0.00 0.00 66 1026.7
20260502003009 51 267 0.0 0.0 0.00 0.00 0.00 63 1026.7
20260502002409 51 267 0.0 0.0 0.00 0.00 0.00 62 1026.7
20260502001807 51 267 0.0 0.0 0.00 0.00 0.00 67 1026.8
20260502001207 51 267 0.0 0.0 0.00 0.00 0.00 63 1026.8
20260502000607 51 267 0.0 0.0 0.00 0.00 0.00 61 1026.7
20260501235409 52 267 0.0 0.0 0.00 0.00 0.00 59 1026.8
20260501234807 52 267 0.0 0.0 0.00 0.00 0.00 61 1026.8
20260501234207 52 267 0.0 0.0 0.00 0.00 0.00 64 1026.9
20260501233607 51 267 0.0 0.0 0.00 0.00 0.00 64 1026.8
20260501233011 51 267 0.0 0.0 0.00 0.00 0.00 65 1026.8
20260501232409 52 267 0.0 0.0 0.00 0.00 0.00 61 1026.7